Flag for U.S.A. Weather past 2 weeks in Paradise, Nevada, U.S.A.

Now
94 °F

Sunny.


Feels Like: 90 °F
Forecast: 68 / 96 °F
Wind: 8 mph from Southeast

Location: McCarran International Airport

Current Time: Sep 22, 2014 at 5:43:42 PM

Latest Report: Sep 22, 2014 at 4:56 PM


Visibility: 10 mi

Pressure: 29.81 "Hg

Humidity: 16%

Dew point: 41 °F

Location of ParadiseLocation

Historic Weather in Paradise — Graph

°F

Paradise temperature yesterday

Maximum temperature yesterday: 92 °F (at 3:56 PM)
Minimum temperature yesterday: 75 °F (at 4:56 AM)
Average temperature yesterday: 83 °F

Past Weeks' High & Low Weather Summary

 TemperatureHumidityPressure
High103 °F (Sep 15, 3:56 PM)94% (Sep 8, 5:56 PM)29.95 "Hg (Sep 8, 5:56 PM)
Low71 °F (Sep 10, 5:56 AM)8% (Sep 11, 3:56 PM)29.57 "Hg (Sep 18, 3:56 PM)
Average86 °F31%29.77 "Hg
* Reported Sep 7 3:56 PM — Sep 22 3:56 PM, Paradise, Weather by CustomWeather, © 2014

Note: Actual official high and low records may vary slightly from our data, if they occured in-between our weather recording intervals... More about our weather records

Advertising

Paradise weather history for previous 24 hours

 ConditionsComfort  
Time TempWeatherWind HumidityBarometerVisibility
3:56 PM
Sep 22
95 °FPassing clouds.8 mph15%29.82 "Hg10 mi
2:56 PM94 °FPassing clouds.9 mph17%29.84 "Hg10 mi
1:56 PM94 °FPassing clouds.12 mph18%29.86 "Hg10 mi
12:56 PM91 °FPassing clouds.5 mph19%29.89 "Hg10 mi
11:56 AM88 °FPassing clouds.No wind25%29.93 "Hg10 mi
10:56 AM85 °FSunny.6 mph30%29.94 "Hg10 mi
9:56 AM83 °FSunny.5 mph34%29.95 "Hg10 mi
8:56 AM80 °FSunny.No wind36%29.95 "Hg10 mi
7:56 AM77 °FSunny.6 mph40%29.93 "Hg10 mi
6:56 AM75 °FClear.6 mph43%29.92 "Hg10 mi
5:56 AM75 °FClear.7 mph47%29.89 "Hg10 mi
4:56 AM76 °FClear.No wind47%29.88 "Hg10 mi
3:56 AM76 °FClear.3 mph39%29.87 "Hg10 mi
2:56 AM78 °FClear.7 mph32%29.87 "Hg10 mi
1:56 AM80 °FClear.3 mph29%29.86 "Hg10 mi
12:56 AM82 °FClear.7 mph24%29.86 "Hg10 mi
11:56 PM
Sep 21
82 °FClear.12 mph26%29.84 "Hg10 mi
10:56 PM84 °FClear.8 mph25%29.84 "Hg10 mi
9:56 PM87 °FPassing clouds.8 mph20%29.83 "Hg10 mi
8:56 PM88 °FPassing clouds.16 mph22%29.81 "Hg10 mi
7:56 PM89 °FPassing clouds.10 mph22%29.80 "Hg10 mi
6:56 PM91 °FPassing clouds.9 mph17%29.78 "Hg10 mi
5:56 PM92 °FPassing clouds.8 mph19%29.77 "Hg10 mi
Weather by CustomWeather, © 2014

See weather overviewHow to use our weather pages